Find OneWeb SL0192

NORAD ID: 48222 Int'l Des: 2021-031 Owner: ONEWEBN Country: UK Constellation: oneweb operational
又名: ONEWEB-0192 spacetrack, celestrak
LEOCIRCULARPOLARONEWEB_TYPE

当前视图

正在加载3D地球...

About OneWeb SL0192

OneWeb SL0192 (NORAD 48222) is a oneweb constellation satellite launched Apr 25, 2021 by ONEWEBN of UK. It operates in LEO, CIRCULAR, POLAR, ONEWEB_TYPE orbit with a mass of 148.00 kg.

即将过境

Passes for default location (London). Set your location on the main map for personalized predictions.

高度历史

Loading altitude history...

两行轨道根数

1 48222U 21031N 26238.12006529 -.00000002 00000-0 -40952-4 0 9999
2 48222 87.8905 275.7621 0002082 97.0617 263.0749 13.14518799257361
Epoch: Aug 26, 2026 • Age: 8 hours

当前状态

高度 1215.4 km
远地点 / 近地点 N/A
速度 7.25 km/s
星下点 -24.54°S, 46.44°W
发射日期 Apr 25, 2021
运行时间 5.3 years
类型 internet

技术详情

分类 Payload
质量 148.00 kg
干质量 140.00 kg
总质量 148.00 kg
长度 1.30 m
直径 1.00 m
跨度 5.00 m
形状 Trapezoid+2 pan
制造商 ONEWUS
平台类型 ARROW
阶段状态 In Orbit
所有者/国家 ONEWEBN/UK

Most Searched